Location: Caracas
(10.5033°N, 66.8422°W)
Time: 14:38:33
(UTC-04:00)

Vanguard 1 - Visible Passes

Search period start: 24 November 2017 00:00
Search period end: 04 December 2017 00:00
Orbit: 650 x 3834 km, 34.2° (Epoch: 23 November)

Date Brightness Start Highest point End Pass type
(mag) Time Alt. Az. Time Alt. Az. Time Alt. Az.
24 Nov 13.5 02:03:11 18° S 02:03:11 18° S 02:11:16 10° SSE visible
25 Nov 13.6 02:22:33 14° SSW 02:23:05 14° SSW 02:30:33 10° S visible
26 Nov 13.8 00:29:13 11° SSE 00:29:13 11° SSE 00:29:36 10° SSE visible
27 Nov 13.7 00:48:33 12° SSE 00:48:33 12° SSE 00:49:40 10° SSE visible
28 Nov 13.7 01:07:50 11° S 01:07:50 11° S 01:08:53 10° S visible
28 Nov 14.5 06:04:57 10° S 06:10:53 11° SSE 06:16:43 10° SE visible
30 Nov 10.8 18:58:00 10° NNW 19:00:53 16° NNE 19:01:16 16° NE visible
01 Dec 10.2 19:18:11 10° NNW 19:21:41 28° NNE 19:21:41 28° NNE visible
02 Dec 14.5 05:05:31 10° S 05:11:49 11° SSE 05:18:13 10° SE visible
02 Dec 9.7 19:38:43 10° NW 19:42:12 45° N 19:42:12 45° N visible
03 Dec 14.5 05:23:21 10° S 05:35:20 16° SSE 05:47:15 10° ESE visible
03 Dec 9.8 19:59:33 10° WNW 20:02:49 51° WNW 20:02:49 51° WNW visible
